Location: Carrières
(48.9495°N, 2.0407°E)
Time: 09:46:57
(UTC+00:00)

Cosmos 1241 Rocket - Pass Details

Date: 10 October 2023
Orbit: 941 x 1006 km, 65.8° (Epoch: 06 December)

Event Time Altitude Azimuth Distance (km) Brightness Sun altitude
Rises 17:52:12 0° 310° (NW) 3,637 8.3 -7.3°
Reaches altitude 10° 17:56:04 10° 287° (WNW) 2,675 8.2 -7.9°
Maximum altitude 17:59:06 14° 257° (WSW) 2,378 7.9 -8.4°
Drops below altitude 10° 18:02:07 10° 227° (SW) 2,655 7.5 -8.9°
Sets 18:05:57 0° 204° (SSW) 3,590 7.8 -9.5°
